Preview of NWS' New Version of Forecast
This preview is not operational and should not be used for support decisions.
Latest weather observations around

Huntsville, Madison County Executive Airport (KMDQ)

Using English Units (Switch to International System of Units)
Date/ Time (CST) Wind (mph) Vis. (mi) Weather Sky Cond. Temp (°F) Rel. Humidity Wind Chill (°F) Heat Index (°F) Pressure Precip. (in)
Air Dwpt 6 hour Altimeter (inHg) Sea level (inHg) 1 hr 3 hr 6 hr
Max Min
Feb 19 09:15 NNE 6 10 Cloudy OVC095 37 28     72% 32   30.43   0    
Feb 19 08:55 NNE 7 10 Cloudy OVC095 36 29     73% 31   30.43     0  
Feb 19 08:35 NNE 7 10 Cloudy OVC095 36 28     74% 30   30.44        
Feb 19 08:15 NNE 8 10 Cloudy OVC095 35 28     74% 29   30.44        
Feb 19 07:55 NNE 7 10 Cloudy OVC095 35 28     76% 29   30.43        
Feb 19 07:35 NE 6 10 Cloudy OVC095 34 27     75% 29   30.43        
Feb 19 07:15 NE 6 10 Light Rain OVC095 34 28     77% 29   30.41        
Feb 19 06:55 NNE 8 10 Light Snow OVC095 34 27     76% 27   30.44   0    
Feb 19 06:35 NNE 7 10 Clear   34 27     74% 28   30.44   0    
Feb 19 06:15 NNE 8 10 Clear   34 27     74% 27   30.43        
Feb 19 05:55 NNE 8 10 Clear   34 26     74% 27   30.43        
Feb 19 05:35 NNE 8 10 Partly Cloudy SCT120 34 27     74% 27   30.43        
Feb 19 05:15 NNE 9 10 Mostly Cloudy BKN120 34 27     75% 27   30.43        
Feb 19 04:55 N 5 10 Partly Cloudy SCT110 34 27     74% 30   30.45   0    
Feb 19 04:35 NNE 3 10 Partly Cloudy SCT120 34 26     73% 31   30.44   0    
Feb 19 04:15 NNE 10 10 Clear CLR 34 26     73% 26   30.41        
Feb 19 03:55 NNE 8 10 Clear CLR 33 26     73% 27   30.4        
Feb 19 03:35 NNE 7 10 Clear CLR 33 26     73% 27   30.41        
Feb 19 03:15 NNE 8 10 Partly Cloudy SCT110 34 26     72% 27   30.41        
Feb 19 02:55 NNE 9 10 Mostly Cloudy BKN110 34 26     71% 26   30.41   0 0  
Feb 19 02:35 NNE 8 10 Partly Cloudy SCT110 34 26     71% 27   30.42   0    
Feb 19 02:15 NNE 8 10 Partly Cloudy SCT110 34 25     71% 27   30.42   0    
Feb 19 01:55 NNE 10 10 Clear CLR 34 25     70% 26   30.42        
Feb 19 01:35 NNE 9 10 Clear CLR 34 25     69% 27   30.43        
Feb 19 01:15 NNE 9 10 Clear CLR 35 26     69% 27   30.43        
Feb 19 00:55 NNE 9 10 Clear CLR 35 26     69% 27   30.44   0    
Feb 19 00:35 N 8 10 Clear CLR 35 26     69% 28   30.43   0    
Feb 19 00:15 NNE 7 10 Clear CLR 35 26     70% 29   30.44        
Feb 18 23:55 NNE 7 10 Clear CLR 35 27     71% 29   30.44       0
Feb 18 23:35 NNE 9 10 Clear CLR 35 27     72% 28   30.44        
Feb 18 23:15 N 6 10 Clear CLR 35 27     72% 30   30.45        
Feb 18 22:55 N 7 10 Clear CLR 35 27     71% 29   30.44   0    
Feb 18 22:35 N 8 10 Clear CLR 35 27     71% 29   30.44        
Feb 18 22:15 NNE 7 10 Clear CLR 36 27     70% 30   30.44        
Feb 18 21:55 NNE 8 10 Clear CLR 36 27     70% 29   30.44   0    
Feb 18 21:35 N 8 10 Clear CLR 36 26     68% 29   30.44   0    
Feb 18 21:15 N 7 10 Clear CLR 36 26     68% 30   30.44        
Feb 18 20:55 N 10 10 Clear CLR 36 27     68% 29   30.44   0 0  
Feb 18 20:35 N 10 10 Clear CLR 36 27     68% 29   30.42   0    
Feb 18 20:15 N 13 10 Clear CLR 37 27     67% 29   30.41   0    
Feb 18 19:55 N 9 10 Clear CLR 37 27     67% 31   30.41   0    
Feb 18 19:35 N 13 10 Clear CLR 38 28     66% 30   30.41   0    
Feb 18 19:15 N 11 10 Clear CLR 39 28     66% 31   30.4   0    
Feb 18 18:55 N 14 10 Clear CLR 40 28     64% 32   30.39        
Feb 18 18:35 NNE 11 10 Clear CLR 40 28     63% 33   30.37        
Feb 18 18:15 N 10 10 Clear CLR 40 29     64% 34   30.36        
Feb 18 17:55 NNE 9 10 Clear CLR 41 28     60% 35   30.36   0   0
Feb 18 17:35 NNE 11 10 Clear CLR 42 30     62% 36   30.34        
Feb 18 17:15 NNE 11 10 Clear CLR 43 30     60% 37   30.33        
Feb 18 16:55 N 14 10 Clear CLR 44 29     56% 37   30.32   0    
Feb 18 16:35 N 11 10 Clear CLR 44 31     59% 38   30.32   0    
Feb 18 16:15 NNE 8 10 Clear CLR 45 32     62% 40   30.31        
Feb 18 15:55 N 9 10 Clear CLR 45 32     61% 40   30.31   0    
Feb 18 15:35 N 15 10 Clear CLR 44 30     58% 37   30.29   0    
Feb 18 15:15 NNE 11 10 Clear CLR 44 31     60% 38   30.29   0    
Feb 18 14:55 N 14 10 Clear CLR 44 31     59% 38   30.29   0 0  
Feb 18 14:35 NNW 16 10 Clear CLR 45 32     61% 37   30.3   0    
Feb 18 14:15 NNW 16 10 Clear CLR 45 32     59% 38   30.29   0    
Feb 18 13:55 NNW 15 10 Clear CLR 45 31     57% 39   30.3   0    
Feb 18 13:35 N 9 10 Clear CLR 46 32     59% 41   30.29   0    
Feb 18 13:15 N 15 10 Clear CLR 46 32     59% 39   30.29   0    
Feb 18 12:55 NNW 13 10 Clear CLR 45 33     60% 40   30.3   0    
Feb 18 12:35 N 11 10 Clear CLR 45 33     62% 40   30.3   0    
Feb 18 12:15 N 13 10 Clear CLR 45 33     62% 38   30.31   0    
Feb 18 11:55 N 9 10 Clear CLR 44 34     68% 39   30.3   0   0
Feb 18 11:35 N 11 10 Clear CLR 43 33     67% 37   30.3   0    
Feb 18 11:15 NNW 9 10 Clear CLR 43 34     70% 37   30.32        
Feb 18 10:55 NNW 11 10 Partly Cloudy SCT018 42 34     72% 36   30.31   0    
Feb 18 10:35 N 10 10 Partly Cloudy SCT018 42 34     73% 36   30.31   0    
Feb 18 10:15 N 10 10 Mostly Cloudy BKN018 41 33     74% 35   30.31        
Feb 18 09:55 N 8 10 Mostly Cloudy BKN018 41 34     78% 36   30.3   0    
Feb 18 09:35 N 8 10 Cloudy OVC018 41 34     78% 36   30.3   0    
Feb 18 09:15 N 9 10 Cloudy OVC018 41 34     77% 35   30.29        
Feb 18 08:55 N 13 10 Cloudy OVC018 40 34     79% 33   30.28   0 0  
Feb 18 08:35 N 11 10 Cloudy OVC020 40 35     80% 34   30.27   0    
Feb 18 08:15 N 9 10 Cloudy OVC018 40 35     83% 34   30.26        
Feb 18 07:55 N 10 10 Cloudy OVC020 40 35     85% 33   30.26   0    
Feb 18 07:35 N 10 10 Cloudy SCT014 OVC022 40 36     86% 33   30.24   0    
Feb 18 07:15 NNW 8 10 Cloudy SCT012 OVC024 39 36     90% 34   30.23        
Feb 18 06:55 NNW 10 10 Mostly Cloudy SCT012 BKN024 39 36     90% 32   30.21   0    
Feb 18 06:35 NW 8 10 Partly Cloudy SCT024 39 36     89% 33   30.21        
Feb 18 06:15 NW 8 10 Cloudy SCT015 OVC022 39 36     87% 34   30.19        
Feb 18 05:55 NNW 9 10 Cloudy OVC015 40 36     86% 34   30.18   0   0
Feb 18 05:35 NNW 7 10 Cloudy OVC015 40 37     87% 36   30.16   0    
Feb 18 05:15 NNW 9 10 Cloudy OVC017 41 37     86% 35   30.14   0    
Feb 18 04:55 NNW 11 10 Cloudy OVC019 41 36     82% 34   30.13   0    
Feb 18 04:35 NW 10 10 Cloudy OVC019 41 36     83% 35   30.12   0    
Feb 18 04:15 NNW 8 10 Cloudy OVC019 41 37     84% 36   30.11        
Feb 18 03:55 NNW 7 10 Cloudy OVC021 41 37     87% 36   30.1   0    
Feb 18 03:35 NNW 9 10 Clear   41 37     85% 35   30.09   0    
Feb 18 03:15 NNW 7 10 Clear   41 37     88% 36   30.08   0    
Feb 18 02:55 NW 7 10 Clear   40 36     84% 36   30.07   0 0  
Feb 18 02:35 NNW 10 10 Cloudy BKN016 OVC021 42 37     85% 36   30.07   0    
Feb 18 02:15 NW 8 10 Cloudy OVC014 43 37     81% 38   30.07        
Feb 18 01:55 NW 10 10 Cloudy BKN010 OVC014 42 40     90% 37   30.07   0    
Feb 18 01:35 NNW 11 10 Cloudy OVC010 43 40     91% 36   30.07   0    
Feb 18 01:15 NNW 13 10 Cloudy BKN010 OVC015 43 41     91% 37   30.06   0    
Feb 18 00:55 NNW 8 10 Cloudy BKN010 OVC015 43 41     91% 39   30.03   0    
Feb 18 00:35 WNW 8 10 Cloudy OVC011 44 41     91% 39   30.04   0    
Feb 18 00:15 NW 10 10 Cloudy SCT011 BKN016 OVC110 44 42     92% 38   30        
Feb 17 23:55 WNW 9 10 Light Rain SCT013 BKN090 OVC110 44 42     93% 39   30.02   0   0
Feb 17 23:35 NW 8 10 Light Rain BKN012 BKN027 OVC090 44 42     92% 40   29.98   0    
Feb 17 23:15 NW 10 10 Light Rain SCT010 OVC027 45 42     92% 39   29.99   0    
Feb 17 22:55 WNW 13 10 Light Rain SCT012 BKN029 OVC100 45 43     91% 39   29.99   0    
Feb 17 22:35 W 6 7 Light Rain OVC090 46 44     93% 43   29.99   0    
Feb 17 22:15 WSW 7 7 Light Rain SCT055 BKN075 OVC090 46 44     92% 42   29.98   0    
Feb 17 21:55 WNW 5 7 Rain and Fog/Mist SCT010 BKN050 OVC080 46 45     94% 44   29.96   0    
Feb 17 21:35 Calm 7 Rain SCT009 BKN050 OVC075 47 45     93%     29.94   0    
Feb 17 21:15 NW 7 7 Light Rain SCT009 BKN060 OVC070 47 45     93% 44   29.94   0    
Feb 17 20:55 W 5 7 Rain and Fog/Mist SCT037 BKN065 OVC085 47 46     94% 45   29.96   0 0  
Feb 17 20:35 NW 9 7 Light Rain and Fog/Mist SCT011 OVC065 47 46     93% 43   29.93   0    
Feb 17 20:15 WNW 8 7 Rain SCT013 BKN065 OVC075 48 46     93% 45   29.93   0    
Feb 17 19:55 NW 9 10 Rain BKN018 BKN023 OVC060 49 47     95% 45   29.92   0    
Feb 17 19:35 NW 10 7 Rain and Fog/Mist SCT008 BKN016 OVC020 50 48     93% 46   29.9   0    
Feb 17 19:15 NW 9 7 Light Rain BKN008 BKN024 OVC065 52 51     95%     29.89   0    
Feb 17 18:55 Calm 7 Light Rain and Fog/Mist SCT042 BKN065 OVC100 53 51     95%     29.89   0    
Feb 17 18:35 WNW 5 10 Light Rain SCT008 BKN065 OVC110 52 51     96%     29.86   0    
Feb 17 18:15 W 9 5 Rain and Fog/Mist SCT007 BKN010 OVC060 53 52     95%     29.89   0    
Feb 17 17:55 N 9 10 Light Rain BKN007 OVC011 54 53     95%     29.81   0   0
Feb 17 17:35 NNW 10 5 Rain and Fog/Mist OVC007 55 54     96%     29.82   0    
Feb 17 17:15 NW 6 10 Light Rain BKN009 OVC060 55 54     97%     29.82   0    
Feb 17 16:55 S 3 5 Light Rain and Fog/Mist SCT021 SCT036 OVC050 56 54     95%     29.8   0    
Feb 17 16:35 W 7 7 Rain and Fog/Mist SCT003 BKN017 OVC021 55 53     94%     29.82   0    
Feb 17 16:15 NW 11 1.75 Rain and Fog/Mist OVC003 58 58     98%     29.78   0    
Feb 17 15:55 Calm 3 Rain and Fog/Mist OVC005 58 57     97%     29.78   0    
Feb 17 15:35 S 7 4 Light Rain and Fog/Mist OVC007 58 57     96%     29.76   0    
Feb 17 15:15 SE 6 2.5 Rain and Fog/Mist OVC005 59 58     97%     29.74   0    
Feb 17 14:55 S 5 3 Light Rain and Fog/Mist OVC005 59 58     97%     29.76     0  
Feb 17 14:35 SE 6 3 Light Rain and Fog/Mist OVC005 59 58     96%     29.74        
Feb 17 14:15 SE 5 5 Light Rain and Fog/Mist OVC005 59 58     95%     29.76        
Feb 17 13:55 S 6 5 Fog/Mist OVC005 59 58     96%     29.77   0    
Feb 17 13:35 SSE 8 4 Fog/Mist OVC005 60 58     95%     29.77        
Feb 17 13:15 S 14 5 Fog/Mist OVC005 60 59     95%     29.78        
Feb 17 12:55 S 11 7 Fog/Mist OVC005 60 58     94%     29.77   0    
Feb 17 12:35 S 10 5 Fog/Mist OVC005 59 58     96%     29.8        
Feb 17 12:15 S 11 3 Light Drizzle and Fog/Mist OVC005 59 58     96%     29.81        
Feb 17 11:55 S 11 5 Fog/Mist OVC005 59 58     96%     29.81   0   0
Feb 17 11:35 S 11 3.5 Fog/Mist OVC005 58 56     96%     29.82   0    
Feb 17 11:15 SSE 9 7 Cloudy OVC007 57 56     94%     29.82        
Feb 17 10:55 SSE 9 10 Cloudy OVC007 57 55     94%     29.82   0    
Feb 17 10:35 SSE 11 7 Cloudy OVC007 56 54     95%     29.82   0    
Feb 17 10:15 SSE 10 7 Cloudy OVC007 56 54     94%     29.83        
Feb 17 09:55 SSE 13 7 Light Rain and Fog/Mist OVC007 55 54     96%     29.82   0    
Feb 17 09:35 SSE 9 1.5 Light Rain and Fog/Mist OVC007 54 53     96%     29.82   0    
Feb 17 09:15 SSE 8 2.5 Light Rain and Fog/Mist OVC007 54 53     95%     29.82   0    
Feb 17 08:55 SSE 8 5 Rain and Fog/Mist OVC007 53 52     94%     29.82        
Feb 17 08:35 SSE 10 7 Cloudy OVC007 53 51     94%     29.81        
Feb 17 08:15 SSE 11 7 Cloudy OVC007 53 51     94%     29.8        
Feb 17 07:55 S 9 7 Cloudy OVC007 52 51     94%     29.78        
Feb 17 07:35 SE 11 7 Cloudy OVC009 51 50     95%     29.77        
Feb 17 07:15 SE 9 10 Light Rain OVC009 51 49     95%     29.79        
Feb 17 06:55 SE 6 7 Cloudy OVC011 50 49     95%     29.79        
Feb 17 06:35 SE 8 10 Cloudy OVC011 50 49     95%     29.79        
Feb 17 06:15 SE 10 7 Cloudy OVC011 50 48     94%     29.78        
Feb 17 05:55 SE 10 10 Cloudy OVC013 50 48     93% 45   29.78   0   0
Feb 17 05:35 SE 9 10 Cloudy OVC015 49 47     93% 45   29.78   0    
Feb 17 05:15 SSE 8 7 Light Rain SCT010 OVC015 49 47     94% 45   29.78        
Feb 17 04:55 SSE 10 7 Cloudy OVC017 49 47     93% 44   29.78        
Feb 17 04:35 SSE 13 10 Cloudy OVC019 49 46     90% 44   29.77        
Feb 17 04:15 SSE 11 10 Cloudy OVC021 49 46     91% 44   29.77        
Feb 17 03:55 SSE 10 10 Light Rain BKN017 OVC023 48 46     91% 44   29.77   0    
Feb 17 03:35 SSE 10 10 Cloudy OVC017 48 45     90% 43   29.77   0    
Feb 17 03:15 SSE 13 10 Cloudy OVC017 48 45     90% 42   29.78        
Feb 17 02:55 SSE 9 10 Cloudy OVC017 47 45     92% 43   29.78   0 0  
Feb 17 02:35 SE 10 10 Light Rain OVC019 47 45     92% 42   29.77   0    
Feb 17 02:15 SE 9 10 Cloudy BKN021 OVC027 46 44     91% 42   29.78   0    
Feb 17 01:55 SE 5 10 Cloudy BKN023 OVC030 45 44     93% 43   29.79        
Feb 17 01:35 SE 3 10 Cloudy BKN031 BKN060 OVC110 44 42     94% 42   29.81        
Feb 17 01:15 Calm 10 Light Rain SCT011 SCT038 BKN110 42 41     95%     29.81        
Feb 17 00:55 ESE 3 10 Light Drizzle OVC011 42 40     92% 41   29.81   0    
Feb 17 00:35 Calm 10 Clear   42 40     93%     29.83        
Feb 17 00:15 Calm 10 Clear   42 39     91%     29.83        
Feb 16 23:55 Calm 10 Clear   41 39     92%     29.83   0    
Feb 16 23:35 ESE 5 10 Cloudy OVC011 41 39     92% 38   29.81        
Feb 16 23:15 ENE 5 10 Cloudy OVC011 41 39     92% 38   29.82        
Feb 16 22:55 NE 5 10 Cloudy OVC011 41 39     92% 38   29.83   0    
Feb 16 22:35 E 3 10 Cloudy OVC011 41 38     91% 39   29.83   0    
Feb 16 22:15 N 3 10 Cloudy OVC011 41 38     91% 39   29.85        
Feb 16 21:55 WNW 3 10 Cloudy OVC013 41 38     91% 39   29.86   0    
Feb 16 21:35 Calm 10 Cloudy OVC013 41 38     91%     29.85   0    
Feb 16 21:15 Calm 10 Cloudy OVC013 40 38     91%     29.85   0    
Feb 16 20:55 ENE 3 10 Cloudy OVC013 40 38     91% 38   29.86   0 0  
Feb 16 20:35 Calm 10 Cloudy OVC013 40 38     91%     29.86   0    
Feb 16 20:15 NNE 3 10 Cloudy OVC013 40 37     90% 38   29.87        
Feb 16 19:55 N 5 10 Cloudy OVC013 40 37     90% 37   29.88   0    
Feb 16 19:35 N 6 10 Cloudy OVC013 40 37     90% 36   29.88   0    
Feb 16 19:15 NNW 6 10 Cloudy OVC013 40 37     91% 36   29.89   0    
Feb 16 18:55 NNW 7 10 Cloudy OVC013 40 38     91% 35   29.89   0    
Feb 16 18:35 N 7 10 Cloudy OVC011 40 37     90% 35   29.88   0    
Feb 16 18:15 N 7 10 Cloudy OVC011 40 37     90% 35   29.86   0    
Feb 16 17:55 N 9 10 Cloudy OVC011 40 37     90% 34   29.87   0   0
Feb 16 17:35 N 7 10 Cloudy OVC011 40 37     89% 35   29.86   0    
Feb 16 17:15 N 8 10 Cloudy OVC011 40 37     89% 35   29.85        
Feb 16 16:55 N 8 10 Cloudy OVC011 40 38     89% 35   29.86   0    
Feb 16 16:35 N 9 10 Cloudy OVC009 41 38     89% 35   29.87   0    
Feb 16 16:15 N 9 10 Cloudy OVC009 41 38     89% 35   29.88   0    
Feb 16 15:55 N 9 10 Cloudy OVC009 41 37     88% 35   29.87   0    
Feb 16 15:35 N 10 10 Cloudy OVC007 41 37     88% 34   29.88   0    
Feb 16 15:15 N 8 10 Cloudy OVC007 40 37     89% 35   29.87   0    
Feb 16 14:55 N 7 10 Cloudy OVC007 40 37     89% 35   29.88   0 0  
Feb 16 14:35 N 8 10 Cloudy OVC007 40 37     89% 35   29.87   0    
Feb 16 14:15 N 10 10 Cloudy OVC007 40 37     89% 34   29.86   0    
Feb 16 13:55 N 10 10 Cloudy OVC007 40 37     89% 34   29.86   0    
Feb 16 13:35 NNW 7 10 Cloudy OVC007 40 37     89% 35   29.86   0    
Feb 16 13:15 NNW 9 10 Cloudy OVC007 40 37     90% 33   29.86   0    
Feb 16 12:55 N 9 10 Cloudy OVC005 39 37     91% 33   29.88   0    
Feb 16 12:35 N 8 10 Cloudy OVC005 39 36     90% 33   29.88   0    
Feb 16 12:15 N 9 10 Cloudy OVC005 39 37     91% 33   29.88   0    
Feb 16 11:55 N 13 10 Cloudy OVC005 39 36     90% 31   29.89   0   0
Feb 16 11:35 N 10 10 Cloudy OVC005 39 37     91% 33   29.9   0    
Feb 16 11:15 N 11 10 Cloudy OVC005 39 36     91% 32   29.9   0    
Feb 16 10:55 N 10 10 Cloudy OVC005 39 36     92% 32   29.9   0    
Feb 16 10:35 N 11 10 Cloudy OVC005 39 37     93% 31   29.91   0    
Feb 16 10:15 N 13 10 Cloudy OVC005 38 37     94% 31   29.91   0    
Feb 16 09:55 N 13 7 Cloudy OVC005 38 36     94% 30   29.91   0    
Feb 16 09:35 NNW 14 10 Cloudy OVC005 38 36     93% 30   29.91   0    
May 15 10:55 SSW 8 10 Clear CLR 85 68     56%   88 30        
Notice The following observation data may not be complete
May 15 09:55   10 Clear CLR          %              
May 14 19:55 ESE 3 10 Clear   78 66     66%   78 29.95        
May 14 17:35 N 3 10 Clear CLR 88 61     41%   88 29.96        
May 14 09:55 N 3 10 Clear CLR 82 66     59%   84 30.08        
May 14 02:35 Calm 7 Clear CLR 65 64     97%     30.03        
May 14 01:15 Calm 10 Clear CLR 66 65     95%     30.06        
May 14 00:55 Calm 10 Clear CLR 66 64     94%     30.06        
May 14 00:15 Calm 10 Clear CLR 67 65     93%     30.08        
May 13 23:35 Calm 10 Clear CLR 68 66     92%     30.08        
May 13 10:15 WSW 8 10 Clear CLR 83 62     49%   84 30.16        
Notice The following observation data may not be complete
May 13 02:55   10 Clear CLR          %              
May 13 00:35 Calm 10 Clear CLR 63 60     90%     30.09        
May 12 23:55 SSE 3 10 Clear CLR 66 61     84%     30.08        
May 12 21:15 Calm 10 Clear CLR 69 62     78%     30.1        
May 12 17:15 SSW 8 10 Clear CLR 86 56     36%   85 30.09        
May 12 16:55 WNW 8 10 Clear CLR 86 56     36%   85 30.09        
May 12 16:35 NW 7 10 Clear CLR 87 56     35%   85 30.09        
Notice The following observation data may not be complete
May 12 15:35   10 Clear CLR          %              
May 11 21:35 S 8 10 Clear CLR 74 58     59%   73 30.06        
May 11 21:15 S 6 10 Clear CLR 73 60     63%   73 30.06        
May 11 17:15 SW 14 10 Clear CLR 87 60     41%   86 30.05        
Notice The following observation data may not be complete
May 11 13:15   10 Clear CLR          %              
Notice The following observation data may not be complete
Jun 12 08:35   10 Mostly Cloudy SCT018 BKN026 BKN100          %              
Jun 12 04:15 Calm 10 Clear CLR 72 66     83%   72 30.12        
Jun 12 04:00 Calm 10 Clear CLR 72 66     83%   72 30.12        
Jun 12 00:15 Calm 10 Clear CLR 70 66     88%     30.12        
Jun 11 12:55 SE 7 10 Partly Cloudy SCT047 SCT055 86        %     30.16        
Jun 11 11:55 SSE 9 10 Partly Cloudy SCT065 84        %     30.17        
Jun 11 06:55 ESE 3 10 Clear CLR 68 61     78%     30.14        
Jun 11 02:35 Calm 10 Clear   63 61     94%     30.1        
Jun 11 02:15 Calm 10 Clear CLR 63 61     94%     30.11        
Jun 09 23:35 Calm 10 Partly Cloudy SCT060 63 59     88%     30.01        
Jun 09 21:35 Calm 10 Clear CLR 64 59     83%     29.98        
Jun 09 20:15 Calm 10 Clear CLR 70 59     69%     29.95        
Notice The following observation data may not be complete
Jun 09 19:15   10 Clear CLR          %              
Jun 09 18:55 Calm 10 Clear CLR 79        %     29.94        
Jun 09 16:35 Calm 10 Clear CLR 79        %     29.95        
Jun 09 10:15 ESE 3 10 Clear CLR 73 55     53%   73 30        
Notice The following observation data may not be complete
Jun 09 04:35   10 Clear CLR          %              
Jun 09 03:35 Calm 10 Clear CLR 55 54     94%     29.93        
Jun 08 21:35 Calm 10 Clear CLR 63 54     72%     29.92        
Jun 08 20:35 N 3 10 Clear CLR 68 54     60%     29.9        
Jun 08 07:55 N 6 10 Clear CLR 61 54     77%     29.96        
Jun 08 06:55 Calm 10 Clear CLR 57 54     88%     29.94        
Jun 07 14:55 N 13 10 Partly Cloudy SCT060 77        %     29.88        
Jun 07 13:55 NNE 11 10 Partly Cloudy SCT060 79        %     29.88        
Jun 07 12:35 NNE 11 10 Clear   77        %     29.9        
Notice The following observation data may not be complete
Jun 06 15:15   10 Clear CLR          %              
Jun 06 07:15 Calm 10 Mostly Cloudy SCT060 BKN080 68 68     100%     29.83        
Jun 06 06:55 Calm 7 Light Rain SCT033 BKN060 OVC085 68 68     100%     29.84   0    
Jun 06 05:55 Calm 10 Light Rain BKN003 OVC009 68 68     100%     29.83        
Jun 06 03:55 Calm 10 Mostly Cloudy BKN007 BKN110 68 66     94%     29.81        
Jun 05 19:15 Calm 10 Light Drizzle SCT050 73 68     83%   74 29.8